CAPE
0 0 0 0 0 0 0 0 0 0 0 0 0 0 0 0 0 0 0 0 0 0 0 0 0 0 0 0 0 0 0 0 0 0 0 0 0 0 0 0 0 0 0 0
0 0 0 0 0 0 0 0 0 0 0 0 0 0 0 0 0 0 0 0 0 0 0 0 0 0 0 0 0 0 0 0 0 0 0 0 0 0 0 0 0 0 0 0
0 0 0 0 0 0 0 0 0 0 0 0 0 0 0 0 0 0 0 0 0 0 0 0 0 0 0 0 0 0 0 0 0 0 0 0 0 0 0 0 0 0 0 0
0 0 0 0 0 0 0 0 0 0 0 0 0 0 0 0 0 0 0 0 0 0 0 0 0 0 0 0 0 0 0 0 0 0 0 0 0 0 0 0 0 0 0 0
0 0 0 0 0 0 0 0 0 0 0 0 0 0 0 0 0 0 0 0 0 0 0 0 0 0 0 0 0 0 0 0 0 0 0 0 0 0 0 0 0 0 0 0
0 0 0 0 0 0 0 0 0 0 0 0 0 0 0 0 0 0 0 0 0 0 0 0 0 0 0 0 0 0 0 0 0 0 0 0 0 0 0 0 0 0 0 0
0 0 0 0 0 0 0 0 0 0 0 0 0 0 0 0 0 0 0 0 0 0 0 0 0 0 0 0 0 0 0 0 0 0 0 0 0 0 0 0 0 0 0 0
0 0 0 0 0 0 0 0 0 0 0 0 0 0 0 0 0 0 0 0 0 0 0 0 0 0 0 0 0 0 0 0 0 0 0 0 0 0 0 0 0 0 0 0
0 0 0 0 0 0 0 0 0 0 0 0 0 0 0 0 0 0 0 0 0 0 0 0 0 0 0 0 0 0 0 0 0 0 0 0 0 0 0 0 0 0 0 0
0 3 0 0 0 0 0 0 0 0 0 0 0 0 0 0 0 0 0 0 0 0 0 0 0 0 0 0 0 0 0 0 0 0 0 0 0 0 0 0 0 0 0 0
0 0 0 0 0 0 0 0 0 0 0 0 0 0 0 0 0 0 0 0 0 0 0 0 0 0 0 0 0 0 0 0 0 0 0 0 0 0 0 0 0 0 0 0
0 0 0 0 0 0 0 0 0 0 0 0 0 1 0 0 0 0 0 0 0 0 0 0 0 0 0 0 0 0 0 0 0 0 0 0 0 0 0 0 0 0 0 0
0 0 2 0 0 0 0 0 0 0 0 0 0 0 0 0 0 0 0 0 0 0 0 0 0 0 0 0 0 0 0 0 0 0 0 0 0 0 0 0 0 0 0 0
0 2 14 0 0 0 0 0 0 2 10 1 2 0 0 0 0 0 0 0 0 0 0 0 0 0 0 0 0 0 0 0 0 0 0 0 0 0 0 0 0 0 0 0
3 0 0 0 0 0 0 0 0 0 0 1 0 0 0 0 0 0 0 0 0 0 0 0 0 0 0 0 0 0 0 0 0 0 0 0 0 0 0 0 0 0 0 0
0 1 0 0 0 0 0 0 0 0 0 0 0 0 0 0 0 0 0 0 0 0 0 0 0 0 0 0 0 0 0 0 0 0 0 0 0 0 0 0 0 0 0 0
0 1 0 0 0 0 0 0 0 0 0 0 0 0 0 0 0 0 0 0 0 0 0 0 0 0 0 0 0 0 0 0 0 0 0 0 0 0 0 0 0 0 0 0
0 0 0 0 0 0 0 0 0 0 0 0 0 0 0 0 0 0 0 0 0 0 0 0 0 0 0 0 0 0 0 0 0 0 0 0 0 0 0 0 0 0 0 0
0 0 0 0 0 0 0 0 0 0 0 0 0 0 0 0 0 0 0 0 0 0 0 0 0 0 0 0 0 0 0 0 0 0 0 0 0 0 0 0 0 0 0 0
0 0 0 0 0 0 0 0 0 0 0 0 0 0 0 0 0 0 0 0 0 0 0 0 0 0 0 0 0 0 0 0 0 0 0 0 0 0 0 0 0 0 0 0
0 0 0 0 0 0 0 0 0 0 0 0 0 0 0 0 0 0 0 0 0 0 0 0 0 0 0 0 0 0 0 0 0 0 0 0 0 0 0 0 0 0 0 0
0 0 0 0 0 0 0 0 0 0 0 0 0 0 0 0 0 0 0 0 0 0 0 0 0 0 0 0 0 0 0 0 0 0 0 0 0 0 0 0 0 0 0 0
0 0 0 0 0 0 0 0 0 0 0 0 0 0 0 0 0 0 0 0 0 0 0 0 0 0 0 0 0 0 0 0 0 0 0 0 0 0 0 0 0 0 0 0
0 0 0 0 0 0 0 0 0 0 0 0 0 0 0 0 0 0 0 0 0 0 0 0 0 0 0 0 0 0 0 0 0 0 0 0 0 0 0 0 0 0 0 0
0 0 0 0 0 0 0 0 0 0 0 0 0 0 0 0 0 0 0 0 0 0 0 0 0 0 0 0 0 0 0 0 0 0 0 0 0 0 0 0 0 0 0 1
0 0 0 0 0 0 0 0 0 0 0 0 0 0 0 0 0 0 0 0 0 0 0 0 0 0 0 0 0 0 0 0 0 0 0 0 0 0 0 0 0 0 0 0
CIN
0 0 0 0 0 0 0 0 0 0 0 0 0 0 0 0 0 0 0 0 0 0 0 0 0 0 0 0 0 0 0 0 0 0 0 0 0 0 0 0 0 0 0 0
0 0 0 0 0 0 0 0 0 0 0 0 0 0 0 0 0 0 0 0 0 0 0 0 0 0 0 0 0 0 0 0 0 0 0 0 0 0 0 0 0 0 0 0
0 0 0 0 0 0 0 0 0 0 0 0 0 0 0 0 0 0 0 0 0 0 0 0 0 0 0 0 0 0 0 0 0 0 0 0 0 0 0 0 0 0 0 0
0 0 0 0 0 0 0 0 0 0 0 0 0 0 0 0 0 0 0 0 0 0 0 0 0 0 0 0 0 0 0 0 0 0 0 0 0 0 0 0 0 0 0 0
0 0 0 0 0 0 0 0 0 0 0 0 0 0 0 0 0 0 0 0 0 0 0 0 0 0 0 0 0 0 0 0 0 0 0 0 0 0 0 0 0 0 0 0
0 0 0 0 0 0 0 0 0 0 0 0 0 0 0 0 0 0 0 0 0 0 0 0 0 0 0 0 0 0 0 0 0 0 0 0 0 0 0 0 0 0 0 0
0 0 0 0 0 0 0 0 0 0 0 0 0 0 0 0 0 0 0 0 0 0 0 0 0 0 0 0 0 0 0 0 0 0 0 0 0 0 0 0 0 0 0 0
0 0 0 0 0 0 0 0 0 0 0 0 0 0 0 0 0 0 0 0 0 0 0 0 0 0 0 0 0 0 0 0 0 0 0 0 0 0 0 0 0 0 0 0
-3 0 0 0 0 0 0 0 0 0 0 0 0 0 0 0 0 0 0 0 0 0 0 0 0 0 0 0 0 0 0 0 0 0 0 0 0 0 0 0 0 0 0 0
0 -18 0 0 0 0 0 0 0 0 0 0 0 0 0 0 0 0 0 0 0 0 0 0 0 0 0 0 0 0 0 0 0 0 0 0 0 0 0 0 0 0 0 0
0 -4 0 0 0 0 0 0 0 0 0 0 0 0 0 0 0 0 0 0 0 0 0 0 0 0 0 0 0 0 0 0 0 0 0 0 0 0 0 0 0 0 0 0
0 0 0 0 0 0 0 0 0 -1 0 0 0 -7 0 0 0 0 0 0 0 0 0 0 0 0 0 0 0 0 0 0 0 0 0 0 0 0 0 0 0 0 0 0
0 -1 -1 0 0 0 0 0 0 0 0 0 0 0 0 0 0 0 0 0 0 0 0 0 0 0 0 0 0 0 0 0 0 0 0 0 0 0 0 0 0 0 0 0
0 -5 -15 0 0 -13 0 0 0 -3 -2 -8 -2 0 0 0 0 0 0 0 0 0 0 0 0 0 0 0 0 0 0 0 0 0 0 0 0 0 0 0 0 0 0 0
-4 -1 0 0 0 0 0 0 0 0 0 0 0 0 0 0 0 0 0 0 0 0 0 0 0 0 0 0 0 0 0 0 0 0 0 0 0 0 0 0 0 0 0 0
0 -3 -13 0 0 0 0 0 0 0 0 0 0 0 0 0 0 0 0 0 0 0 0 0 0 0 0 0 0 0 0 0 0 0 0 0 0 0 0 0 0 0 0 0
-3 -13 -3 0 0 0 0 0 0 0 0 0 0 0 0 0 0 0 0 0 0 0 0 0 0 0 0 0 0 0 0 0 0 0 0 0 0 0 0 0 0 0 0 0
0 0 0 0 0 0 0 0 0 0 0 0 0 0 0 0 0 0 0 0 0 0 0 0 0 0 0 0 0 0 0 0 0 0 0 0 0 0 0 0 0 0 0 0
0 0 0 0 0 0 0 0 0 0 0 0 0 0 0 0 0 0 0 0 0 0 0 0 0 0 0 0 0 0 0 0 0 0 0 0 0 0 0 0 0 0 0 0
0 0 -1 0 0 0 0 0 0 0 0 0 0 0 0 0 0 0 0 0 0 0 0 0 0 0 0 0 0 0 0 0 0 0 0 0 0 0 0 0 0 0 0 0
0 0 0 0 0 0 0 0 0 0 0 0 0 0 0 0 0 0 0 0 0 0 0 0 0 0 0 0 0 0 0 0 0 0 0 0 0 0 0 0 0 0 0 0
0 0 0 0 0 0 0 0 0 0 0 0 0 0 0 0 0 0 0 0 0 0 0 0 0 0 0 0 0 0 0 0 0 0 0 0 0 0 0 0 0 0 0 0
0 0 0 0 0 0 0 0 0 0 0 0 0 0 0 0 0 0 0 0 0 0 0 0 0 0 0 0 0 0 0 0 0 0 0 0 0 0 0 0 0 0 0 0
0 0 0 0 0 0 0 0 0 0 0 0 0 0 0 0 0 0 0 0 0 0 0 0 0 0 0 0 0 0 0 0 0 0 0 0 0 0 0 0 0 0 0 0
0 0 0 0 0 0 0 0 0 0 0 0 0 0 0 0 0 0 0 0 0 0 0 0 0 0 0 0 0 0 0 0 0 0 0 0 0 0 0 0 0 0 0 -1
0 0 0 0 0 0 0 0 0 0 0 0 0 0 0 0 0 0 0 0 0 0 0 0 0 0 0 0 0 0 0 0 0 0 0 0 0 0 0 0 0 0 0 0
Wind_Speed
23 26 28 27 26 31 35 38 43 36 38 44 40 37 38 45 31 34 40 36 41 42 40 35 31 27 22 19 15 13 14 15 17 19 20 22 23 23 23 23 22 21 21 21
27 31 26 28 27 29 33 42 43 41 38 39 43 40 56 33 20 19 18 44 37 36 35 35 31 30 31 26 19 14 13 13 15 18 20 23 22 24 25 24 24 23 22 22
31 33 29 27 29 32 34 37 43 45 44 42 49 43 31 31 33 29 29 33 33 33 32 32 34 37 38 35 26 15 12 11 13 15 17 20 21 24 25 26 26 24 23 23
30 26 25 26 29 27 39 31 36 42 45 44 38 60 35 36 31 34 32 24 26 26 30 34 37 44 44 40 32 25 21 16 15 15 16 18 19 21 23 24 26 25 24 24
27 27 28 31 31 24 35 31 36 38 41 45 38 42 42 34 38 25 22 23 27 30 32 40 44 44 43 40 37 31 23 19 18 16 17 19 21 21 21 22 23 25 25 25
34 31 32 34 31 29 31 35 37 37 38 47 39 37 44 30 23 22 29 34 41 43 40 41 38 39 40 39 36 34 28 24 21 19 21 22 22 24 22 21 23 25 26 26
37 36 31 29 36 33 32 36 46 46 42 48 36 41 41 34 39 41 43 45 34 35 37 37 38 39 40 40 37 36 31 28 24 23 23 26 28 27 26 24 24 23 25 27
47 57 36 31 33 38 38 37 42 52 53 53 39 49 50 37 39 44 35 27 33 35 34 36 38 39 39 39 39 36 31 28 27 27 27 25 27 29 29 27 26 25 26 26
46 52 33 33 35 36 40 42 40 48 46 53 54 52 55 52 37 31 33 36 37 38 39 38 39 39 38 37 37 34 32 30 29 29 28 29 28 27 27 28 26 27 27 27
35 52 44 41 39 40 39 36 45 42 54 61 50 56 56 54 39 38 40 40 38 38 39 39 38 38 38 36 35 34 33 32 32 32 31 32 34 32 31 26 23 24 27 27
42 45 54 45 45 46 41 43 42 46 49 58 60 53 44 39 37 41 41 38 38 39 40 39 38 37 36 37 37 37 35 36 36 36 35 35 36 35 34 33 29 27 27 28
39 42 46 51 45 41 44 49 45 51 48 48 53 54 34 33 35 37 40 41 41 41 42 41 42 41 41 40 40 41 40 39 39 39 39 38 38 38 39 37 36 34 34 32
32 42 57 52 44 35 38 37 35 33 41 57 60 51 26 32 35 38 41 42 41 42 44 45 46 47 46 46 44 43 44 44 43 43 42 41 40 40 41 42 43 39 40 39
35 43 50 59 52 45 50 49 42 46 56 57 55 57 49 45 47 46 44 43 44 46 49 48 47 47 47 46 45 46 45 45 46 45 44 43 43 43 43 44 44 43 42 42
35 52 50 52 50 47 51 52 53 56 55 59 60 61 58 50 47 44 44 44 46 48 48 48 47 48 47 47 46 46 46 46 47 48 48 48 48 47 46 47 46 46 47 47
39 53 49 55 50 49 56 56 57 58 58 56 55 57 41 37 38 41 43 42 45 48 48 48 47 48 49 49 49 48 47 47 47 48 49 49 50 51 51 50 49 49 48 47
44 48 53 67 56 55 63 56 54 53 52 52 58 48 36 39 40 41 42 39 44 47 48 50 49 50 51 51 50 51 52 51 51 51 51 51 52 53 53 53 52 51 50 46
47 49 50 62 56 74 56 43 42 46 43 38 37 36 37 40 39 40 39 38 45 47 49 50 50 51 52 52 53 53 54 55 55 54 54 53 54 56 55 54 54 54 50 48
42 48 54 58 60 58 56 47 46 45 48 35 36 38 41 40 40 45 36 38 45 48 49 49 48 51 54 54 55 56 57 57 58 58 57 57 57 58 55 56 56 55 54 52
34 36 44 46 54 58 44 33 32 33 53 31 36 42 44 42 51 51 40 39 44 47 49 51 50 52 54 56 53 57 59 60 62 61 61 60 60 61 60 59 58 56 55 54
40 39 44 46 50 48 35 32 29 48 46 34 39 43 44 47 44 44 41 44 46 48 49 48 49 54 56 54 54 58 59 62 60 59 61 62 62 62 62 63 62 61 59 57
37 38 39 37 44 51 28 28 36 37 43 45 44 44 46 44 42 42 44 47 50 52 53 52 54 56 55 55 55 60 62 60 60 61 64 65 65 65 65 65 65 62 59 57
38 33 39 35 36 28 30 43 48 42 43 45 42 44 41 42 43 43 45 48 49 50 52 54 56 58 58 57 56 61 63 61 63 64 67 68 67 67 66 66 66 63 59 57
34 30 39 42 38 40 44 42 38 39 39 38 39 41 41 42 42 45 47 49 50 53 54 53 55 59 62 61 60 60 63 63 65 69 72 70 70 69 66 64 62 62 61 59
31 33 39 41 35 37 38 34 35 38 37 37 36 37 39 40 44 45 49 51 53 54 55 55 58 60 64 65 66 64 64 64 67 68 69 69 68 68 67 63 61 59 58 55
29 34 36 42 35 36 38 38 34 35 36 36 39 40 38 40 44 46 49 50 52 55 57 60 62 62 64 64 65 64 62 62 63 65 63 62 62 62 62 63 65 59 60 59
Wind_Direction
308 302 300 302 298 306 305 305 304 309 312 308 267 303 310 309 311 267 268 266 308 302 283 312 324 331 334 326 313 291 276 268 256 250 249 256 246 251 253 250 248 240 241 240
303 293 299 308 305 302 303 302 304 309 313 309 308 270 299 310 283 307 298 290 310 305 296 307 321 326 326 329 324 311 285 266 246 246 250 264 255 260 257 255 252 245 242 241
291 301 307 301 303 303 303 303 305 306 310 308 307 310 318 320 319 322 319 313 310 314 322 320 317 319 322 319 321 314 296 276 261 259 258 268 272 275 262 258 255 247 242 240
300 308 304 305 304 305 300 308 308 307 308 309 316 302 312 318 319 319 319 321 329 330 328 326 323 322 318 320 320 312 303 293 283 268 262 243 254 260 263 257 258 252 244 242
302 306 306 301 304 307 304 310 308 306 304 306 307 306 309 315 315 322 334 339 335 335 332 325 323 324 321 322 320 319 312 300 293 275 266 261 264 264 272 263 256 253 252 249
297 305 301 301 304 302 309 307 307 304 302 296 301 302 307 315 322 325 332 329 324 321 322 322 329 332 333 334 330 326 320 311 302 291 284 276 273 276 273 265 260 256 254 252
302 299 301 301 300 304 303 303 300 297 295 292 301 295 290 299 302 310 316 316 326 328 327 330 332 336 337 338 339 337 329 318 311 301 293 287 283 280 277 273 269 262 258 255
297 293 297 299 297 300 297 294 289 293 292 293 294 288 289 299 308 311 317 327 326 328 331 331 335 337 339 341 343 342 337 327 317 307 302 299 293 287 283 277 273 268 263 259
295 291 300 297 300 299 298 290 296 289 290 289 288 289 292 297 306 315 319 319 319 321 324 326 332 335 336 340 342 345 341 337 331 319 312 303 297 291 287 282 278 275 272 268
299 294 297 299 299 294 290 298 292 291 289 287 289 288 289 294 300 307 311 314 318 319 321 324 327 330 331 336 339 338 338 335 332 328 317 307 296 293 287 285 280 276 273 270
298 292 292 298 293 292 292 288 288 291 285 285 289 290 293 297 302 305 309 312 316 318 319 320 322 325 325 329 330 329 328 324 324 321 318 310 300 296 289 285 283 280 277 272
298 297 289 289 294 296 291 289 287 284 287 286 288 289 301 304 308 308 308 311 314 316 316 317 317 317 318 320 320 320 319 317 315 312 314 312 308 299 289 289 285 282 278 275
303 293 294 296 299 304 295 297 293 290 293 290 289 293 308 313 311 312 309 311 313 314 315 315 315 315 314 314 314 314 314 312 311 309 309 308 306 305 297 290 287 285 281 277
303 292 288 287 290 295 292 292 292 291 289 292 288 293 297 302 303 305 305 306 309 311 312 312 314 316 315 315 314 313 312 313 311 308 306 303 303 303 303 300 294 288 284 281
297 289 290 289 292 293 291 290 289 288 290 290 293 292 296 298 300 303 304 305 306 308 309 311 312 314 314 315 315 314 312 312 311 304 303 302 301 301 303 301 300 294 288 284
296 291 293 290 291 293 291 290 289 290 292 291 292 292 299 301 302 304 306 306 308 308 309 311 311 312 313 313 312 313 312 313 313 307 304 302 302 301 300 300 300 299 296 290
294 293 292 288 293 294 287 288 290 292 292 292 291 297 301 301 302 304 307 307 309 310 310 309 309 310 310 311 310 308 307 308 308 306 306 306 306 303 303 302 300 299 299 297
291 291 292 290 293 285 292 298 296 294 295 297 299 301 302 303 304 306 307 306 309 310 309 309 309 308 309 308 307 306 305 305 305 306 306 306 306 304 303 301 300 298 299 296
282 286 288 286 286 289 291 294 295 294 294 296 300 304 306 307 305 304 305 306 310 311 310 310 310 309 308 307 306 304 302 302 301 301 301 302 303 302 301 299 299 299 296 294
294 286 284 289 288 289 297 302 304 303 293 297 303 305 307 308 300 303 307 307 311 312 312 311 310 309 309 308 307 305 302 301 300 299 298 299 299 298 297 297 296 296 295 292
297 295 286 286 287 292 299 304 306 295 300 306 307 306 306 305 301 306 308 308 311 312 312 313 312 309 309 309 308 304 303 301 301 300 299 298 297 296 294 293 293 292 292 292
300 299 296 297 292 292 304 307 301 307 305 305 306 307 307 308 307 307 308 309 312 312 313 313 312 310 311 310 308 304 302 303 301 300 298 297 296 294 293 292 290 290 289 289
299 298 298 294 297 309 308 304 305 307 305 306 307 310 311 309 309 310 310 312 313 314 314 314 312 311 310 310 309 305 303 304 301 299 297 296 295 294 292 290 289 289 287 285
301 301 296 297 298 300 301 305 307 308 308 310 311 312 312 311 312 312 313 314 314 315 315 315 314 312 310 310 309 306 305 304 301 298 296 295 293 292 292 290 288 286 284 281
304 308 303 299 303 306 305 305 309 310 311 312 314 316 315 315 314 315 314 315 316 316 317 317 316 314 311 310 308 308 306 304 301 299 297 295 293 291 289 288 286 284 282 280
301 299 299 299 306 306 305 307 311 313 313 314 314 315 318 318 317 318 317 319 319 318 319 318 316 315 314 312 310 309 308 306 303 300 299 297 295 292 290 286 284 282 280 278